Theta_e
307 307 307 308 308 307 307 307 307 307 308 309 309 310 311 310 310 311 312 312 312 311 310 309 309 309 308 307 307 306 303 303 305 309 310 311 312 312 313 314 315 316 316 317 320 323 323 323 323 323 324 325 324 324 323 322 321 319 317 317 316 315 315
304 304 304 307 307 307 306 305 306 306 306 307 308 309 310 310 311 311 311 312 312 311 310 309 308 307 306 305 304 303 302 303 306 309 309 310 311 312 313 314 315 315 316 316 318 322 323 323 323 323 323 324 323 322 321 320 320 318 317 317 316 315 314
302 301 302 304 305 306 305 304 306 307 307 307 307 309 309 310 311 310 311 312 312 310 310 309 308 306 305 302 301 302 304 306 308 309 309 310 311 311 312 314 315 316 316 316 318 322 323 322 322 322 323 323 322 320 319 319 318 317 317 317 317 315 314
301 302 302 303 304 305 305 306 307 307 307 307 307 308 309 310 310 309 310 312 311 310 309 308 307 304 302 302 303 305 307 308 309 309 310 310 310 311 311 313 315 315 316 317 317 321 323 323 322 322 322 323 320 318 317 317 316 317 317 316 316 314 313
301 303 303 303 305 306 305 306 307 306 306 306 306 308 309 309 309 309 310 310 310 309 308 307 305 302 303 305 307 308 308 309 309 310 310 310 311 311 311 312 314 315 316 317 318 321 322 323 322 322 323 322 319 317 316 315 315 316 316 316 315 313 313
300 301 302 302 304 305 305 306 306 306 306 306 307 309 309 309 309 309 309 309 309 307 307 305 302 302 306 308 308 308 309 309 310 311 311 311 311 311 311 313 315 315 316 318 319 320 322 322 322 322 323 322 319 317 316 314 314 314 314 315 314 312 312
300 300 301 302 304 304 305 306 306 305 306 307 308 309 309 309 308 308 308 308 307 306 305 303 301 305 309 308 308 309 309 310 311 311 311 311 312 312 313 314 315 315 316 317 318 318 320 321 321 322 323 321 319 317 315 313 313 313 312 312 312 311 312
300 299 300 301 302 303 304 304 304 304 305 307 309 309 309 308 308 308 307 306 304 303 302 300 302 307 309 308 309 309 309 310 312 312 311 311 312 313 314 315 315 315 316 317 318 318 319 320 320 321 322 319 315 313 313 311 312 313 312 310 309 311 311
299 299 299 300 301 302 302 302 303 303 305 307 308 308 308 308 308 307 306 305 303 301 300 301 306 308 308 308 309 309 309 310 311 312 312 312 313 314 315 315 315 316 317 317 318 318 319 320 320 322 322 320 315 312 311 311 311 311 311 310 310 309 310
298 298 298 299 299 299 300 300 301 302 305 307 307 307 307 306 307 306 305 303 301 300 301 305 308 308 309 309 309 309 309 309 310 311 312 313 313 314 314 314 314 315 316 317 317 317 318 318 319 321 322 321 318 315 311 310 311 310 309 311 311 309 309
299 299 298 298 298 297 298 300 302 304 305 306 306 306 306 306 306 305 303 301 302 303 305 307 309 309 309 309 309 309 308 308 310 311 312 313 313 313 313 313 314 315 316 317 317 317 318 317 316 318 320 318 317 317 314 311 311 311 310 311 311 311 310
300 299 299 298 297 298 300 302 304 305 306 306 306 306 306 306 305 303 301 302 304 306 306 308 310 309 309 309 309 308 307 308 310 311 312 313 313 313 314 314 314 315 316 317 318 318 317 316 314 316 319 317 315 315 316 316 312 311 312 313 311 311 310
299 298 298 298 298 299 301 303 304 305 306 306 305 305 305 305 303 301 301 303 306 307 308 310 310 309 308 309 309 308 307 308 309 311 312 312 313 313 313 314 314 316 317 316 317 318 316 315 314 316 320 318 315 314 316 317 314 310 311 313 312 310 309
298 297 298 298 299 301 302 303 303 304 304 304 304 304 304 303 301 301 302 304 306 308 310 310 309 309 308 308 309 309 308 307 308 310 312 312 312 312 312 313 313 315 317 317 317 317 317 316 315 317 319 317 315 315 315 316 315 312 310 311 311 310 309
298 298 298 299 300 302 303 303 303 304 304 304 303 303 302 301 300 300 302 304 307 309 310 309 309 308 308 308 309 310 309 307 307 310 312 312 312 312 312 312 312 312 314 317 317 316 317 317 315 316 318 317 315 315 316 316 315 313 311 310 310 310 310
298 298 299 300 301 302 303 303 304 304 304 303 303 302 302 300 300 301 302 304 306 308 309 309 308 308 308 308 309 310 309 307 306 309 311 310 310 310 310 311 312 311 312 315 317 316 317 318 316 317 318 317 317 316 316 317 316 314 312 310 310 311 311
298 298 299 300 301 302 303 303 304 304 303 303 302 302 301 300 300 301 302 304 305 307 309 309 308 309 308 308 308 309 308 306 307 309 309 309 309 309 308 309 311 311 311 313 316 317 317 318 318 319 318 318 319 318 317 317 316 314 312 310 311 311 311
298 298 299 300 301 302 303 303 303 303 303 302 302 302 301 299 299 300 301 303 305 307 308 308 308 309 308 308 308 308 307 307 308 310 309 308 308 308 307 308 309 310 310 311 314 316 317 318 319 319 319 318 318 317 316 316 315 313 312 312 311 311 310
298 298 299 300 301 302 302 302 302 302 302 302 302 301 300 299 299 300 301 303 305 307 308 308 308 308 308 308 308 307 306 307 309 310 308 308 308 307 306 307 308 309 309 308 312 316 317 318 318 318 319 319 317 316 315 314 313 313 313 313 312 311 310
298 298 299 300 301 301 302 302 302 302 301 301 301 300 299 298 299 300 301 303 305 307 307 307 308 308 308 308 308 306 306 307 308 310 309 308 307 305 305 306 307 309 308 307 311 316 318 318 316 316 318 318 316 315 314 313 314 313 313 312 311 311 310
298 298 298 299 299 300 300 301 301 301 300 300 300 299 299 299 299 300 301 302 305 307 307 307 307 307 307 308 308 306 306 306 307 309 310 307 305 304 304 305 308 309 309 308 310 314 317 318 318 318 318 317 316 315 314 314 314 313 312 312 311 311 311
298 298 298 299 298 298 299 299 299 299 299 299 299 299 299 300 300 300 301 302 305 306 307 306 305 306 306 307 307 307 306 305 306 309 310 307 304 304 305 307 309 309 309 309 310 313 316 318 319 318 317 317 316 316 315 314 314 313 313 312 312 311 311
298 298 298 298 298 298 298 298 299 299 299 299 299 299 300 300 300 301 301 302 304 305 305 304 304 305 306 306 307 307 306 305 306 308 309 308 306 305 306 308 310 310 310 312 311 313 316 318 318 318 318 317 317 316 315 314 313 313 313 312 311 311 311
298 298 298 298 298 298 299 299 299 299 299 299 300 300 300 300 300 301 301 302 303 304 304 304 304 305 305 306 307 307 307 306 305 306 309 309 308 305 305 307 310 311 313 315 314 313 315 316 317 318 317 317 317 316 315 314 314 313 312 311 311 311 311
298 298 298 298 298 298 299 299 299 299 300 300 300 300 300 300 301 301 301 301 302 303 303 303 304 304 305 306 307 307 307 306 305 306 308 310 309 306 304 305 308 311 313 315 315 314 314 315 317 317 317 317 317 316 315 315 315 314 313 312 311 311 311
298 298 298 298 298 298 299 299 300 300 300 300 300 300 300 300 300 300 301 301 301 302 303 303 303 304 304 305 306 307 307 307 306 307 309 310 309 308 305 305 307 309 312 313 315 315 314 314 315 316 316 316 317 316 316 315 315 314 312 312 311 311 311
298 298 298 298 298 299 299 299 300 300 300 300 300 300 300 300 300 300 301 301 301 301 302 303 303 304 304 305 306 307 307 306 306 307 309 309 309 308 306 305 305 307 309 311 313 315 314 314 315 315 315 315 316 316 316 316 315 314 313 312 312 311 311
298 298 298 298 299 299 299 299 299 300 300 300 299 299 299 299 299 300 300 301 301 301 301 302 304 305 305 305 306 307 307 306 306 307 309 309 308 307 306 305 303 303 305 308 311 313 315 314 314 314 315 315 315 315 315 315 314 314 313 312 312 312 312
298 298 298 298 298 299 299 299 299 299 299 299 299 299 298 298 298 299 300 300 301 301 301 302 304 305 305 305 306 306 306 306 306 307 307 307 307 307 306 304 302 300 301 303 306 311 314 314 314 314 315 315 315 315 314 314 314 314 313 313 312 312 312
298 298 298 298 298 298 298 298 298 298 298 298 298 298 298 298 298 298 299 300 301 301 301 302 303 305 305 305 306 306 306 306 305 306 305 304 304 304 303 300 298 297 297 297 301 308 313 314 314 315 315 315 315 315 314 314 314 314 313 313 313 313 313
298 298 298 298 298 298 298 297 297 297 297 297 297 297 297 297 298 298 299 300 301 301 301 301 302 304 305 305 306 305 305 305 304 304 304 304 303 302 301 299 298 298 298 297 298 305 311 313 314 314 314 315 315 315 315 315 314 314 314 313 313 313 313
297 297 297 297 297 297 297 297 297 297 297 297 297 297 297 297 297 298 299 300 301 301 301 301 301 302 304 305 305 305 305 305 305 305 305 304 303 302 301 302 302 302 303 302 301 303 308 312 312 312 312 313 314 315 315 314 314 314 314 313 313 312 312
296 296 296 295 295 295 295 295 295 295 295 296 296 296 296 297 297 297 298 299 300 300 301 301 301 301 302 303 304 305 306 306 305 305 305 305 304 303 302 303 304 303 304 304 303 302 304 308 310 310 311 311 312 313 314 314 313 314 313 313 312 311 310
295 295 295 294 294 294 294 294 294 294 294 294 295 295 296 296 296 297 298 298 299 300 300 301 301 301 301 301 302 304 305 305 306 305 306 305 305 304 303 304 305 304 304 304 304 303 303 304 307 308 309 308 308 310 313 313 312 312 313 312 311 310 309
295 295 294 294 293 293 293 293 293 292 293 293 294 294 295 296 296 296 297 297 298 299 299 300 300 301 301 301 301 302 303 304 305 306 306 306 305 305 304 304 304 304 304 305 305 304 303 304 305 306 307 307 306 307 310 311 310 310 311 311 311 311 310
297 296 294 293 293 292 292 292 292 292 292 292 293 293 294 295 295 295 296 296 297 298 298 299 300 300 301 301 301 302 302 303 304 305 306 306 305 305 304 304 304 304 304 304 304 304 303 304 305 305 306 307 306 306 309 310 309 309 310 310 311 312 312
300 298 296 294 293 292 292 292 292 292 292 292 292 292 293 293 294 294 295 296 296 297 297 298 299 299 301 301 301 301 302 302 303 304 305 305 305 305 304 303 304 304 303 303 304 304 304 304 305 305 307 308 308 307 308 310 310 310 311 311 313 313 313
Wind_Speed
16 16 15 16 18 19 20 21 21 19 16 16 17 19 21 22 23 24 22 22 23 26 29 30 31 31 31 31 31 31 29 26 26 25 25 24 22 21 19 17 16 16 15 15 17 18 15 12 15 17 21 25 26 25 25 26 26 22 18 14 11 7 3
14 14 13 15 18 19 21 21 21 21 20 19 18 20 21 21 21 21 21 20 22 25 28 30 32 32 32 32 31 30 28 26 25 25 25 23 21 20 19 19 19 18 16 14 14 17 19 18 16 15 19 24 23 21 22 24 24 21 17 14 10 7 3
14 14 13 15 18 19 20 21 20 21 21 20 20 20 20 19 20 22 21 20 22 26 29 32 34 33 32 32 29 28 27 26 26 25 24 23 22 21 18 18 19 18 17 14 13 15 18 21 19 16 19 25 25 23 24 25 25 22 17 14 10 7 5
15 15 15 16 18 19 20 20 20 21 21 21 21 19 19 20 21 22 22 21 23 27 31 33 33 33 33 31 29 28 27 27 27 26 24 22 22 22 19 17 17 16 16 15 14 15 17 19 19 18 22 27 29 29 29 28 27 24 18 13 10 8 6
15 15 17 18 18 19 20 20 20 20 21 21 21 19 20 21 21 21 22 24 27 30 32 33 33 33 32 30 30 29 29 29 27 26 25 24 23 22 20 16 14 14 13 13 15 17 18 17 18 21 26 30 31 31 32 32 28 23 19 13 9 8 6
15 15 16 17 17 18 19 19 20 20 21 21 21 20 21 21 21 22 24 27 30 31 32 32 33 32 31 31 32 31 30 28 27 27 26 24 22 20 18 14 12 11 11 12 12 13 15 16 17 22 28 32 33 33 32 33 29 23 17 13 10 7 5
16 15 15 16 16 16 17 18 18 19 20 20 20 21 20 20 21 22 25 29 30 31 32 33 32 30 30 33 34 32 29 27 27 27 25 23 20 15 13 10 10 10 10 10 9 9 12 15 15 19 26 28 32 36 35 31 27 23 18 14 12 7 4
16 15 15 15 15 16 16 16 17 18 18 18 19 20 19 19 21 23 27 30 31 32 32 32 30 29 31 34 35 32 28 26 28 27 25 23 17 11 8 8 9 9 8 8 9 8 9 14 14 15 21 26 31 33 33 31 25 20 19 19 15 8 5
17 16 15 15 15 15 14 15 17 18 18 18 19 19 19 21 22 25 29 32 32 32 32 30 28 28 32 35 35 31 27 27 29 31 30 25 16 10 8 7 7 7 6 7 9 8 6 11 15 15 21 29 35 33 29 29 26 22 22 21 17 12 7
18 17 17 16 17 16 15 16 18 18 18 18 18 18 19 21 23 26 30 32 32 31 29 27 27 29 32 36 33 29 27 27 28 30 31 26 17 12 12 9 8 7 5 4 5 8 4 4 9 14 24 34 37 36 33 30 27 27 26 20 16 15 12
18 18 18 18 17 16 17 18 18 18 18 17 16 17 20 22 24 28 31 31 31 29 27 26 27 29 32 34 31 27 27 26 27 29 28 26 21 16 16 13 12 11 6 4 1 5 5 3 3 5 18 33 39 39 39 34 28 27 26 21 13 12 13
18 18 19 19 18 17 18 19 18 18 17 17 17 19 21 23 25 29 30 31 31 29 27 27 29 30 31 33 28 25 27 28 29 30 28 26 24 23 22 17 14 13 11 10 6 3 4 6 5 6 11 31 38 37 37 33 28 25 22 20 14 9 11
18 20 20 20 18 18 19 18 18 18 17 18 19 20 22 24 26 28 29 31 32 29 28 28 29 30 31 30 25 22 26 28 28 30 30 28 26 28 27 23 18 14 13 14 11 6 3 3 5 6 15 34 36 33 33 29 28 27 21 17 15 12 12
20 21 21 19 18 18 18 18 18 17 17 18 20 22 23 25 26 26 28 31 32 30 28 28 29 30 31 29 24 22 25 27 26 29 31 30 29 30 30 29 27 22 18 17 16 14 12 8 4 4 21 37 34 29 29 25 26 28 22 16 13 14 14
21 22 20 18 17 17 17 18 19 18 18 20 21 23 24 25 25 25 28 32 33 30 28 28 30 30 31 29 24 22 24 26 28 30 30 30 30 31 31 31 31 30 26 21 18 17 16 13 8 5 20 32 32 27 25 24 25 25 22 19 15 15 14
22 22 20 18 17 17 17 18 18 19 20 20 22 23 24 24 24 24 28 31 32 30 28 29 30 31 32 29 24 23 23 23 26 30 30 31 31 31 31 30 30 31 30 26 20 17 14 12 7 10 20 24 25 25 23 23 22 21 22 21 17 15 14
23 22 19 17 17 17 17 17 17 17 18 20 22 23 23 24 24 24 28 31 32 31 28 29 30 31 31 29 24 22 22 21 25 27 29 30 30 31 31 29 27 27 28 27 22 18 14 12 10 20 25 19 20 23 22 20 18 18 21 21 17 13 12
24 23 19 18 17 16 16 16 16 17 18 20 21 22 23 23 24 25 28 30 31 31 28 29 30 31 30 26 22 21 21 21 24 25 26 27 27 29 30 28 26 25 26 26 25 20 16 14 15 21 22 17 19 21 20 19 17 16 18 18 17 13 11
26 24 21 19 17 16 15 16 16 17 18 20 21 22 23 23 24 26 27 29 31 30 28 29 31 31 29 25 20 19 20 21 24 23 23 24 24 25 27 26 26 26 26 27 27 22 18 17 18 17 15 15 18 19 19 19 16 15 15 16 15 14 12
27 25 22 18 16 15 15 15 16 17 17 18 20 21 23 24 25 25 26 28 30 30 29 30 30 29 29 25 19 17 18 20 22 22 21 23 24 24 25 25 26 28 27 28 28 23 18 18 20 17 14 16 18 20 20 19 18 16 15 15 14 13 11
26 25 22 19 16 15 15 14 15 15 16 18 19 21 23 24 24 24 25 27 28 29 29 30 30 29 28 27 20 16 17 19 22 22 21 23 25 24 24 24 25 26 27 27 27 25 21 19 20 19 19 19 20 21 21 20 19 17 15 15 14 12 10
25 24 22 21 20 19 18 16 15 15 16 18 20 22 23 24 24 24 25 26 28 29 29 29 29 28 28 27 22 17 16 17 21 24 23 24 27 26 24 24 24 23 23 23 25 26 25 21 19 20 21 21 22 23 22 21 20 18 17 16 14 12 11
24 23 22 22 22 22 21 19 17 17 19 20 21 22 23 24 25 25 25 26 28 29 30 29 28 26 25 25 22 17 15 15 19 25 25 25 28 28 25 24 24 22 20 20 24 28 27 22 18 18 18 20 21 21 22 21 20 18 17 17 15 14 14
23 23 22 22 22 22 21 20 20 21 22 22 22 23 24 25 26 26 26 27 28 29 30 29 27 26 24 24 22 18 15 14 17 22 25 25 27 28 26 24 25 25 21 20 23 27 27 23 19 17 17 18 19 18 18 19 19 18 16 15 14 14 15
22 22 22 22 22 21 21 21 22 22 23 24 24 24 26 26 27 27 28 28 28 28 28 28 28 27 25 22 20 18 16 14 16 20 23 24 24 27 27 24 25 27 25 22 22 24 24 22 21 19 18 17 17 17 16 16 16 16 15 14 13 13 14
20 21 21 21 21 20 21 22 22 23 23 23 24 25 26 26 27 28 29 29 29 28 28 28 28 28 27 24 20 18 16 14 15 19 22 23 22 25 27 25 23 25 27 25 23 23 23 21 21 20 19 17 16 15 14 13 13 13 13 13 14 13 13
19 20 20 20 20 20 21 22 22 22 22 22 23 24 25 26 27 28 29 29 29 29 28 28 27 27 28 27 23 19 16 14 15 18 21 22 21 23 26 26 23 23 24 25 24 23 21 20 19 19 19 20 19 15 12 11 11 12 12 11 11 12 11
17 18 19 19 19 20 21 21 22 21 21 22 23 24 25 25 27 28 28 28 28 29 29 27 27 27 27 28 25 20 17 16 15 17 20 21 20 20 23 25 24 21 21 22 22 21 19 18 17 17 20 23 24 21 18 15 11 11 12 10 9 11 11
16 17 18 18 19 20 21 21 21 20 20 20 21 22 23 24 26 27 27 28 29 29 29 27 26 26 26 26 26 22 19 18 18 18 19 20 19 19 21 23 23 21 18 18 19 18 17 17 17 18 19 21 23 23 22 21 17 14 13 12 11 11 10
16 17 17 19 20 20 20 20 20 20 19 19 20 22 23 23 24 25 26 28 29 30 29 28 26 26 25 25 25 24 22 20 20 20 20 20 20 20 21 21 21 20 19 18 16 15 14 15 17 18 18 19 20 20 21 20 18 16 14 12 11 10 8
17 17 18 19 19 19 20 20 20 20 20 20 22 24 24 23 24 25 26 28 29 30 30 29 27 26 26 25 24 24 23 21 21 22 21 20 21 22 22 22 21 21 21 20 16 12 12 13 15 16 17 17 18 18 17 16 15 14 13 11 10 8 6
17 18 19 20 19 20 20 21 20 20 20 21 22 24 24 24 24 25 26 28 29 30 31 30 29 27 26 26 25 24 22 21 21 21 20 20 20 22 23 22 21 21 22 21 17 13 11 11 13 14 15 16 17 16 14 13 13 12 11 10 9 6 4
18 20 20 20 20 20 21 21 21 22 22 22 22 24 25 25 25 26 26 27 29 30 30 30 30 29 27 27 26 24 22 22 21 20 20 20 20 21 22 23 22 21 20 20 18 15 12 10 10 11 12 13 14 13 12 12 13 12 11 10 9 7 5
19 21 21 20 20 20 21 22 22 23 23 22 23 25 26 26 26 26 27 28 29 29 30 29 30 30 29 28 27 25 24 24 23 20 18 18 20 22 22 23 23 22 20 18 17 16 14 11 10 10 11 12 11 9 8 9 11 12 11 11 11 9 7
19 20 20 19 20 21 21 22 23 23 23 24 25 27 27 26 26 26 27 27 28 28 28 28 29 29 30 30 29 28 26 25 23 21 18 17 18 20 21 22 23 23 20 17 14 13 13 12 12 13 13 10 6 5 5 6 7 8 9 10 10 9 7
18 19 19 19 20 21 22 22 24 24 25 25 27 28 28 27 27 27 27 27 27 27 27 28 28 28 29 30 30 29 28 26 24 21 20 18 18 18 18 20 21 21 18 16 14 13 11 12 13 14 13 9 5 5 5 4 4 6 7 8 9 8 4
16 17 18 18 19 21 22 22 24 25 26 26 27 28 29 28 28 28 28 28 27 27 27 27 27 27 28 29 29 29 28 27 26 24 22 21 19 18 16 16 17 18 16 14 14 13 12 11 13 14 13 11 8 6 5 6 8 9 9 10 11 9 6
Wind_Direction
28 24 28 27 23 23 21 23 27 28 23 19 20 21 20 17 11 8 4 356 352 352 352 351 349 346 344 343 342 341 340 340 341 339 335 333 331 327 323 315 305 301 292 278 271 268 261 245 234 223 203 194 191 190 191 186 181 179 181 186 193 198 196
27 26 28 25 24 23 21 23 27 24 20 22 24 24 21 15 10 9 3 355 353 353 351 349 347 346 345 343 341 339 338 338 337 335 333 330 327 322 319 315 307 302 298 281 264 260 250 237 235 224 197 183 182 188 184 177 179 181 183 188 195 199 189
25 25 24 22 22 21 19 23 25 23 21 22 25 25 17 9 7 7 1 354 352 351 349 347 346 346 345 342 341 340 339 337 335 333 332 327 321 318 315 313 308 304 301 284 268 262 244 229 230 222 198 182 175 177 177 176 180 181 183 192 195 194 182
22 22 20 21 22 20 21 24 24 23 21 22 25 21 12 6 4 3 359 351 347 346 346 347 347 345 345 345 344 343 341 339 336 333 331 325 318 314 311 308 303 300 294 282 275 267 243 224 220 209 195 188 177 171 173 176 179 179 181 188 192 191 182
20 21 20 22 24 23 24 24 22 20 18 22 24 16 10 8 3 359 355 348 344 347 347 347 347 348 349 350 349 346 343 342 339 336 331 324 317 312 308 304 300 296 286 279 277 265 244 226 217 202 190 184 173 168 172 174 176 181 182 182 189 194 180
20 19 20 24 26 25 26 25 22 19 20 24 22 15 13 10 4 358 351 347 347 348 347 347 350 353 354 353 351 349 348 347 344 339 333 326 318 309 302 300 299 292 282 278 277 264 243 233 228 206 188 179 170 167 172 175 175 176 176 180 187 184 165
20 20 22 25 26 25 25 25 21 19 24 26 20 16 14 8 2 355 348 347 349 349 348 350 354 356 358 357 355 354 354 354 351 346 340 334 324 309 296 297 298 289 281 272 267 264 246 236 231 206 186 175 168 166 168 172 174 171 166 171 179 173 151
21 22 24 25 23 22 23 21 18 19 26 26 18 15 12 5 359 352 348 350 352 351 351 354 356 359 0 360 359 358 358 2 4 1 357 348 335 320 305 300 303 296 284 265 243 242 242 231 226 209 189 171 157 156 162 166 170 173 170 166 168 171 157
20 21 22 20 18 21 21 16 15 21 29 27 17 13 9 3 357 351 350 353 354 354 355 357 359 1 3 2 1 0 1 7 12 13 13 6 351 347 347 327 325 318 293 274 242 224 227 224 216 212 205 183 159 149 154 161 165 173 175 169 164 166 169
20 21 20 18 18 19 18 17 23 32 38 32 20 14 7 0 356 354 354 356 358 359 359 1 3 4 5 4 3 3 3 11 17 18 22 22 13 14 19 11 9 2 326 304 260 226 205 189 195 204 208 195 176 161 154 157 167 174 177 175 166 162 167
23 22 20 20 19 20 23 31 40 43 41 32 20 15 10 2 357 357 359 1 4 4 3 4 7 8 6 4 5 7 8 16 23 23 28 32 30 38 43 35 28 21 16 38 69 206 198 175 181 214 200 189 182 174 164 159 167 175 176 176 172 164 165
24 21 21 22 22 27 36 45 50 45 37 29 20 16 11 3 359 0 4 6 8 8 8 10 13 10 6 5 7 11 16 23 28 28 34 37 36 42 46 40 34 33 38 41 54 147 199 210 223 285 213 181 174 173 169 163 165 174 179 174 170 171 164
21 20 22 26 30 39 47 52 52 45 37 28 20 17 10 2 360 3 7 9 10 12 13 16 17 12 8 8 9 14 22 27 26 26 35 43 43 44 44 41 40 49 60 48 42 71 85 161 201 248 197 177 170 168 170 169 164 170 181 176 164 163 161
20 20 24 32 41 49 52 53 51 45 37 28 19 15 10 4 4 6 10 12 12 15 18 21 20 14 10 11 13 18 24 28 25 22 30 40 45 45 43 42 41 48 64 64 54 54 56 76 106 159 167 168 170 168 169 172 166 165 173 175 162 155 153
20 22 31 43 52 56 55 52 49 44 39 33 23 16 12 9 8 10 13 14 15 18 24 25 21 16 12 12 17 23 28 31 25 23 32 40 42 44 44 41 40 42 50 61 61 52 54 69 75 124 156 163 170 168 168 174 171 164 163 165 162 155 147
22 27 40 52 57 58 56 53 51 47 40 34 27 19 14 13 12 13 16 17 16 20 27 29 24 19 14 13 18 28 34 32 23 25 38 42 40 42 42 40 39 37 41 51 56 54 61 68 82 144 151 156 164 165 169 178 174 161 156 158 162 158 144
26 35 48 56 58 61 60 55 53 48 38 32 28 21 17 17 16 16 19 18 17 20 26 30 28 23 17 13 18 33 40 32 23 30 41 42 41 41 38 36 38 36 37 46 52 56 68 72 100 137 144 149 156 156 163 174 173 162 154 154 157 153 137
32 42 52 57 61 65 63 56 50 44 35 31 28 21 20 21 19 18 17 17 17 19 23 28 29 26 20 13 18 38 48 38 28 34 41 40 40 43 39 36 37 38 36 41 48 56 70 82 103 125 136 145 151 153 157 160 160 158 152 148 147 144 135
36 46 56 64 67 66 61 55 47 41 35 31 27 21 21 23 21 18 17 17 18 19 22 27 27 24 19 14 19 41 53 45 36 36 41 41 40 42 42 39 40 41 36 35 43 54 71 94 110 119 123 131 141 148 148 143 142 145 143 139 137 139 143
39 48 59 67 69 65 60 53 45 40 34 28 24 22 22 22 21 20 19 19 21 22 24 26 24 20 18 16 21 42 52 47 40 38 42 43 41 42 45 44 42 40 33 30 39 51 70 100 120 129 130 131 134 137 136 134 134 137 140 139 133 133 144
42 52 59 62 62 59 55 49 42 36 28 24 23 22 22 22 23 24 23 22 24 26 28 28 23 19 17 16 21 40 50 45 39 39 44 45 41 42 46 45 43 40 34 28 32 46 67 94 115 129 137 136 127 128 132 133 132 135 141 144 137 130 132
45 52 54 54 53 51 50 48 42 35 29 25 24 23 23 25 28 28 26 27 28 29 32 31 24 18 16 15 20 35 46 44 39 38 44 48 44 43 46 45 44 44 38 30 29 44 63 84 102 119 135 135 124 126 133 133 134 137 139 142 143 138 131
44 47 47 47 47 47 48 46 41 36 32 28 27 29 30 31 32 31 30 31 30 31 33 31 25 20 19 18 20 31 43 45 41 38 39 44 44 44 46 47 48 48 44 40 41 50 62 76 93 110 129 133 129 130 132 133 137 139 138 139 140 138 133
43 43 43 43 44 45 46 45 41 37 35 35 38 41 40 36 34 33 32 31 31 31 32 30 27 25 25 24 23 29 39 45 44 38 37 39 41 42 46 47 49 49 49 50 55 58 63 72 88 107 124 131 133 135 134 136 140 141 144 144 137 132 128
44 43 41 40 40 42 45 45 44 41 42 46 48 47 43 39 38 36 34 32 31 31 30 29 30 30 30 30 30 31 37 46 47 41 38 40 39 39 43 46 49 50 50 53 59 61 62 70 83 101 119 132 138 139 138 141 144 146 149 144 138 137 130
48 45 43 41 40 41 44 46 46 48 50 51 49 46 44 41 40 38 37 34 31 30 29 28 31 34 34 35 37 37 40 47 51 46 43 43 40 37 39 41 47 52 51 51 56 60 62 70 79 89 106 125 137 143 146 147 146 148 148 142 138 140 135
51 49 47 46 45 45 47 49 49 50 50 49 47 46 45 42 40 39 38 36 32 31 30 28 31 37 39 38 40 44 49 55 56 50 48 48 44 40 38 37 40 50 52 51 53 56 63 74 81 84 91 102 110 120 134 146 152 153 149 144 136 133 133
52 53 51 50 50 50 49 50 51 50 48 47 46 45 44 42 41 41 40 38 36 34 31 28 30 38 43 43 43 47 57 67 65 53 50 53 51 46 42 38 38 44 50 52 53 53 57 70 83 87 87 91 95 97 100 107 124 142 144 140 131 127 130
53 55 53 52 51 51 50 51 52 49 47 47 46 45 44 42 41 41 40 39 39 37 35 32 31 36 43 47 47 50 57 66 68 58 51 54 55 52 47 41 38 43 48 52 54 54 54 63 80 91 92 94 97 96 94 95 100 113 123 124 123 122 122
56 57 55 52 50 50 51 52 51 48 45 46 48 47 46 44 43 43 41 40 40 40 39 37 33 33 40 46 49 52 55 62 68 65 58 53 50 50 51 46 42 45 50 51 53 59 63 67 77 86 91 97 101 101 99 99 100 105 110 112 115 115 113
59 60 57 55 53 52 53 53 51 50 46 46 50 50 48 47 47 46 45 43 42 41 40 40 38 35 36 42 48 52 54 60 68 70 67 58 47 44 48 50 50 52 52 51 53 63 75 79 80 82 85 92 98 100 102 105 108 112 112 111 111 113 113
63 62 60 58 57 55 56 56 55 53 51 49 51 52 50 50 50 50 49 47 44 42 41 41 41 39 38 39 44 48 52 56 62 65 64 61 53 45 44 47 52 55 55 52 53 62 77 84 83 81 83 89 93 93 95 102 108 114 119 118 113 113 110
65 64 61 60 60 58 58 58 56 55 55 54 54 54 52 50 51 51 51 49 46 43 41 39 40 40 40 39 41 44 48 51 51 52 52 53 53 50 45 42 43 47 51 52 52 57 67 77 82 83 85 87 84 82 87 95 99 104 114 118 115 112 99
64 64 62 60 61 61 59 58 56 54 55 56 57 57 53 51 50 50 50 50 47 44 41 39 38 38 39 39 38 40 44 45 44 43 42 44 46 46 44 40 37 36 39 44 50 56 62 71 80 81 77 75 73 76 84 91 93 98 106 115 120 119 101
59 59 59 58 58 59 58 58 56 54 54 55 56 57 55 52 51 50 49 48 47 44 42 39 38 38 38 37 36 37 39 41 41 41 42 42 40 38 38 38 36 34 32 34 43 53 62 72 78 76 73 72 78 94 98 89 87 93 99 108 118 120 107
52 52 53 52 54 55 55 55 55 53 52 52 53 53 53 52 51 50 49 48 46 45 43 41 39 38 37 36 35 34 36 37 38 40 42 43 40 35 34 36 37 36 33 30 34 45 58 71 74 71 69 70 87 121 136 121 93 94 103 114 128 136 124
48 45 47 49 51 52 51 52 53 50 48 48 49 50 49 48 47 47 46 45 44 43 43 43 43 40 38 36 35 33 33 34 35 36 38 41 39 34 31 34 37 38 39 39 39 42 49 62 70 70 68 69 82 113 134 120 104 103 107 114 123 128 112